SWR2062 LSZH-LPPR

Flight info

Callsign SWR2062
Flight time N/A
Altitude 35000
Route VEBIT T50 ROTOS Z669 ULMES DCT VADAR DCT NINTU DCT MEBAK DCT REPSI DCT LERGA DCT MINSO DCT NARAK DCT AGN DCT LATEK DCT PPN DCT MIRPO DCT DGO DCT NEA DCT ZMR DCT ADORO DCT INKIT
Aircraft A321/M-SDE3FGHIRWY/LB1

Departure

Time 2026-05-04 10:30
Airport Zürich Airport (LSZH)

Arrival

Time N/A
Airport Francisco de Sá Carneiro Airport (LPPR)
Time Latitude Longitude Altitude Speed Heading
2026-05-04 10:08 47.45351 8.55701 1407 ft 0 kts
2026-05-04 10:21 47.45329 8.55698 1408 ft 4 kts
2026-05-04 10:21 47.45302 8.55699 1410 ft 4 kts 351°
2026-05-04 10:22 47.45265 8.55732 1407 ft 1 kts 276°
2026-05-04 10:25 47.45268 8.55686 1406 ft 14 kts 275°
2026-05-04 10:25 47.45317 8.55551 1409 ft 17 kts 331°
2026-05-04 10:26 47.45426 8.55471 1412 ft 19 kts 335°
2026-05-04 10:26 47.45558 8.55382 1403 ft 22 kts 335°
2026-05-04 10:26 47.45668 8.55367 1410 ft 13 kts 70°
2026-05-04 10:26 47.45664 8.55508 1402 ft 16 kts 95°
2026-05-04 10:27 47.45653 8.55679 1405 ft 17 kts 94°
2026-05-04 10:27 47.45638 8.55869 1411 ft 22 kts 97°
2026-05-04 10:27 47.45621 8.56137 1411 ft 28 kts 96°
2026-05-04 10:27 47.45598 8.56421 1414 ft 28 kts 96°
2026-05-04 10:28 47.45579 8.56695 1418 ft 26 kts 96°
2026-05-04 10:28 47.45564 8.56906 1420 ft 0 kts 96°
2026-05-04 10:29 47.45564 8.56908 1420 ft 1 kts 96°
2026-05-04 10:29 47.45567 8.56964 1421 ft 10 kts 71°
2026-05-04 10:29 47.45634 8.57014 1425 ft 10 kts 349°
2026-05-04 10:29 47.45673 8.56859 1422 ft 38 kts 277°
2026-05-04 10:30 47.45728 8.56088 1412 ft 109 kts 276°
2026-05-04 10:30 47.45829 8.54683 1396 ft 163 kts 276°
2026-05-04 10:30 47.45959 8.52951 1879 ft 166 kts 277°
2026-05-04 10:30 47.46043 8.51771 2415 ft 163 kts 277°
2026-05-04 10:31 47.46128 8.50563 2824 ft 168 kts 278°
2026-05-04 10:31 47.46244 8.48761 3090 ft 187 kts 274°
2026-05-04 10:32 47.39958 8.36818 5813 ft 282 kts 233°
2026-05-04 10:33 47.38827 8.34445 6625 ft 284 kts 234°
2026-05-04 10:33 47.37761 8.31981 7463 ft 285 kts 238°
2026-05-04 10:33 47.36830 8.29399 8362 ft 284 kts 241°
2026-05-04 10:33 47.35971 8.26785 9277 ft 282 kts 243°
2026-05-04 10:34 47.35132 8.24197 10189 ft 279 kts 243°